Ludington, MI

7:04 PM EST on November 21, 2019 (GMT -0500)
Mason County

Weather History for KLDM - September, 2019

Change the Weather History Date:

Monday, September 2, 2019

  Actual Average Record
Temperature  
Mean Temperature 64 °F -  
Max Temperature 72 °F 75 °F 92 °F (1953)
Min Temperature 56 °F 54 °F 31 °F (1976)
Degree Days  
Heating Degree Days 1    
Growing Degree Days 14 (Base 50)    
Moisture  
Dew Point 60 °F    
Average Humidity 83    
Maximum Humidity 96    
Minimum Humidity 64    
Precipitation  
Precipitation 0.00 in - - ()
Sea Level Pressure  
Sea Level Pressure 30.06 in    
Wind  
Wind Speed 4 mph (NW)    
Max Wind Speed 14 mph    
Max Gust Speed 22 mph    
Visibility 10 miles    
Events      
Averages and records for this station are not official NWS values.
T = Trace of Precipitation, MM = Missing Value Source: NWS Daily Summary

Daily Weather History Graph

Daily Weather History Graph

Search for Another Location

Airport or City:

Astronomy

Sep. 02, 2019 Rise Set
Actual Time 7:09 AM EDT 8:20 PM EDT
Civil Twilight 6:40 AM EDT 8:49 PM EDT
Nautical Twilight 6:04 AM EDT 9:25 PM EDT
Astronomical Twilight 5:26 AM EDT 10:02 PM EDT
Moon 10:58 AM EDT (9/2) 10:33 PM EDT (9/2)
Length of Visible Light 14h 09m
Length of Day
13h 10m
Waxing Crescent, 15% of the Moon is Illuminated
Sep 2
Waxing Crescent
Sep 5
First Quarter
Sep 14
Full
Sep 21
Last Quarter
Sep 28
New

Hourly Weather History & Observations

Time (EDT) Temp. Dew Point Humidity Pressure Visibility Wind Dir Wind Speed Gust Speed Precip Events Conditions
12:15 AM 59.2 °F 57.7 °F 95% 30.06 in 10.0 mi Calm Calm - N/A   Mostly Cloudy
12:35 AM 58.1 °F 57.0 °F 96% 30.05 in 10.0 mi Calm Calm - N/A   Mostly Cloudy
1:16 AM 59.2 °F 57.9 °F 96% 30.06 in 10.0 mi Calm Calm - N/A   Overcast
1:35 AM 61.0 °F 59.4 °F 94% 30.05 in 10.0 mi Calm Calm - N/A   Overcast
1:36 AM 60.8 °F 59.0 °F 94% 30.05 in 10.0 mi Calm Calm - N/A   Overcast
1:55 AM 59.5 °F 58.3 °F 96% 30.05 in 10.0 mi Calm Calm - N/A   Overcast
2:19 AM 59.4 °F 58.1 °F 96% 30.05 in 10.0 mi Calm Calm - N/A   Overcast
2:37 AM 62.1 °F 60.8 °F 96% 30.05 in 10.0 mi SSW 5.8 mph - N/A   Overcast
2:55 AM 64.0 °F 61.7 °F 92% 30.04 in 10.0 mi SW 5.8 mph - N/A   Overcast
2:56 AM 64.0 °F 61.7 °F 92% 30.05 in 10.0 mi SW 5.8 mph - N/A   Overcast
3:15 AM 64.9 °F 62.4 °F 92% 30.04 in 10.0 mi SW 9.2 mph - N/A   Overcast
3:16 AM 64.9 °F 62.2 °F 91% 30.04 in 10.0 mi SW 9.2 mph - N/A   Overcast
3:35 AM 64.9 °F 62.6 °F 92% 30.04 in 10.0 mi SW 8.1 mph - N/A   Overcast
3:58 AM 65.5 °F 63.0 °F 92% 30.04 in 10.0 mi SW 8.1 mph - N/A   Overcast
4:16 AM 65.7 °F 63.3 °F 92% 30.04 in 10.0 mi WSW 6.9 mph - N/A   Overcast
4:35 AM 66.0 °F 63.7 °F 92% 30.04 in 10.0 mi SW 5.8 mph - N/A   Overcast
4:55 AM 66.2 °F 64.0 °F 93% 30.04 in 10.0 mi SW 4.6 mph - N/A   Overcast
4:56 AM 66.2 °F 64.0 °F 93% 30.04 in 10.0 mi SW 4.6 mph - N/A   Overcast
5:19 AM 66.4 °F 64.4 °F 93% 30.04 in 10.0 mi SW 4.6 mph - N/A   Overcast
5:37 AM 66.4 °F 64.4 °F 93% 30.04 in 10.0 mi SW 4.6 mph - N/A   Overcast
5:55 AM 66.6 °F 64.6 °F 93% 30.04 in 10.0 mi SW 4.6 mph - N/A   Overcast
5:56 AM 66.6 °F 64.6 °F 93% 30.04 in 10.0 mi SW 4.6 mph - N/A   Overcast
6:15 AM 66.6 °F 64.6 °F 93% 30.04 in 10.0 mi SW 4.6 mph - N/A   Overcast
6:16 AM 66.6 °F 64.6 °F 93% 30.04 in 10.0 mi SW 4.6 mph - N/A   Overcast
6:35 AM 66.4 °F 64.4 °F 93% 30.04 in 10.0 mi WSW 3.5 mph - N/A   Overcast
6:40 AM 66.4 °F 64.4 °F 93% 30.04 in 10.0 mi WSW 4.6 mph - N/A   Overcast
6:58 AM 66.2 °F 63.9 °F 92% 30.04 in 10.0 mi WSW 3.5 mph - N/A   Overcast
7:16 AM 66.4 °F 63.3 °F 90% 30.05 in 10.0 mi Calm Calm - N/A   Overcast
7:35 AM 66.2 °F 63.0 °F 89% 30.05 in 10.0 mi Calm Calm - N/A   Overcast
7:36 AM 66.2 °F 63.0 °F 89% 30.05 in 10.0 mi Calm Calm - N/A   Overcast
7:55 AM 66.2 °F 62.8 °F 89% 30.05 in 10.0 mi Calm Calm - N/A   Overcast
8:00 AM 66.2 °F 62.8 °F 89% 30.05 in 10.0 mi Calm Calm - N/A   Overcast
8:18 AM 66.2 °F 62.8 °F 89% 30.05 in 10.0 mi WNW 3.5 mph - N/A   Overcast
8:36 AM 66.2 °F 62.6 °F 88% 30.05 in 10.0 mi WNW 3.5 mph - N/A   Overcast
8:55 AM 66.2 °F 62.6 °F 88% 30.05 in 10.0 mi NW 6.9 mph - N/A   Overcast
9:15 AM 68.0 °F 63.1 °F 84% 30.05 in 10.0 mi NW 6.9 mph - N/A   Scattered Clouds
9:16 AM 68.0 °F 63.0 °F 84% 30.05 in 10.0 mi NW 5.8 mph - N/A   Scattered Clouds
9:38 AM 67.5 °F 62.6 °F 84% 30.06 in 10.0 mi NW 6.9 mph - N/A   Mostly Cloudy
9:57 AM 68.7 °F 61.3 °F 77% 30.06 in 10.0 mi NW 10.4 mph 17.3 mph N/A   Mostly Cloudy
10:15 AM 68.5 °F 61.3 °F 78% 30.07 in 10.0 mi NNW 13.8 mph 21.9 mph N/A   Overcast
10:16 AM 68.7 °F 61.2 °F 77% 30.07 in 10.0 mi NNW 11.5 mph 21.9 mph N/A   Overcast
10:35 AM 69.6 °F 61.5 °F 75% 30.07 in 10.0 mi North 9.2 mph - N/A   Mostly Cloudy
10:36 AM 69.8 °F 61.5 °F 75% 30.07 in 10.0 mi North 8.1 mph - N/A   Mostly Cloudy
10:55 AM 69.1 °F 59.7 °F 72% 30.07 in 10.0 mi North 5.8 mph - N/A   Mostly Cloudy
10:59 AM 69.6 °F 59.9 °F 71% 30.07 in 10.0 mi NW 8.1 mph - N/A   Overcast
11:18 AM 70.7 °F 60.4 °F 70% 30.08 in 10.0 mi NW 5.8 mph - N/A   Scattered Clouds
11:36 AM 70.0 °F 60.4 °F 72% 30.08 in 10.0 mi NNW 6.9 mph - N/A   Mostly Cloudy
11:55 AM 69.8 °F 60.6 °F 73% 30.08 in 10.0 mi NW 5.8 mph - N/A   Mostly Cloudy
12:15 PM 71.2 °F 60.8 °F 69% 30.08 in 10.0 mi North 6.9 mph - N/A   Scattered Clouds
12:16 PM 71.1 °F 60.8 °F 70% 30.08 in 10.0 mi North 8.1 mph - N/A   Scattered Clouds
12:39 PM 71.1 °F 60.3 °F 69% 30.08 in 10.0 mi NNW 10.4 mph - N/A   Scattered Clouds
12:57 PM 71.8 °F 60.1 °F 67% 30.08 in 10.0 mi NW 9.2 mph - N/A   Scattered Clouds
1:15 PM 71.8 °F 59.9 °F 66% 30.08 in 10.0 mi NNW 9.2 mph - N/A   Scattered Clouds
1:16 PM 71.6 °F 60.1 °F 67% 30.08 in 10.0 mi NNW 8.1 mph - N/A   Scattered Clouds
1:35 PM 70.7 °F 60.6 °F 70% 30.08 in 10.0 mi NW 6.9 mph - N/A   Scattered Clouds
1:55 PM 69.3 °F 60.1 °F 72% 30.09 in 10.0 mi North 8.1 mph - N/A   Mostly Cloudy
2:18 PM 70.9 °F 60.8 °F 70% 30.08 in 10.0 mi North 10.4 mph - N/A   Mostly Cloudy
2:36 PM 71.4 °F 60.4 °F 68% 30.08 in 10.0 mi NNW 10.4 mph - N/A   Scattered Clouds
2:55 PM 72.0 °F 59.4 °F 64% 30.08 in 10.0 mi North 9.2 mph 16.1 mph N/A   Scattered Clouds
3:15 PM 70.3 °F 59.0 °F 67% 30.08 in 10.0 mi North 10.4 mph - N/A   Mostly Cloudy
3:39 PM 71.4 °F 60.8 °F 69% 30.07 in 10.0 mi North 8.1 mph - N/A   Scattered Clouds
3:57 PM 71.2 °F 60.1 °F 68% 30.07 in 10.0 mi North 6.9 mph - N/A   Clear
4:15 PM 72.0 °F 60.1 °F 66% 30.07 in 10.0 mi North 9.2 mph - N/A   Clear
4:35 PM 71.6 °F 59.9 °F 66% 30.08 in 10.0 mi North 6.9 mph - N/A   Clear
4:55 PM 71.1 °F 59.5 °F 67% 30.08 in 10.0 mi NNW 8.1 mph - N/A   Clear
5:18 PM 70.2 °F 59.2 °F 68% 30.08 in 10.0 mi NNW 8.1 mph - N/A   Clear
5:36 PM 69.8 °F 58.8 °F 68% 30.08 in 10.0 mi NNW 8.1 mph - N/A   Clear
5:55 PM 70.2 °F 58.8 °F 67% 30.07 in 10.0 mi North 8.1 mph - N/A   Clear
5:56 PM 70.0 °F 58.5 °F 67% 30.07 in 10.0 mi North 6.9 mph - N/A   Clear
6:15 PM 70.0 °F 59.0 °F 68% 30.07 in 10.0 mi North 6.9 mph - N/A   Clear
6:39 PM 68.7 °F 58.5 °F 70% 30.07 in 10.0 mi North 3.5 mph - N/A   Clear
6:57 PM 68.4 °F 57.0 °F 67% 30.07 in 10.0 mi NNE 4.6 mph - N/A   Clear
7:15 PM 67.6 °F 56.7 °F 68% 30.07 in 10.0 mi North 4.6 mph - N/A   Clear
7:35 PM 66.4 °F 57.4 °F 73% 30.07 in 10.0 mi North 3.5 mph - N/A   Clear
7:55 PM 64.2 °F 57.6 °F 79% 30.07 in 10.0 mi Calm Calm - N/A   Clear
7:59 PM 64.0 °F 57.4 °F 79% 30.07 in 10.0 mi North 3.5 mph - N/A   Clear
8:18 PM 62.1 °F 57.2 °F 84% 30.08 in 10.0 mi Calm Calm - N/A   Clear
8:36 PM 62.2 °F 57.7 °F 85% 30.07 in 10.0 mi Calm Calm - N/A   Clear
8:55 PM 61.7 °F 57.2 °F 85% 30.07 in 5.0 mi Calm Calm - N/A   Haze
9:15 PM 59.5 °F 56.8 °F 91% 30.07 in 10.0 mi Calm Calm - N/A   Clear
9:39 PM 59.5 °F 57.4 °F 93% 30.07 in 10.0 mi Calm Calm - N/A   Clear
9:57 PM 57.6 °F 55.4 °F 92% 30.06 in 10.0 mi Calm Calm - N/A   Clear
10:15 PM 57.2 °F 55.6 °F 94% 30.06 in 10.0 mi Calm Calm - N/A   Clear
10:16 PM 57.6 °F 55.9 °F 94% 30.06 in 10.0 mi Calm Calm - N/A   Clear
10:35 PM 57.9 °F 55.9 °F 93% 30.06 in 10.0 mi Calm Calm - N/A   Clear
10:55 PM 57.6 °F 56.3 °F 96% 30.06 in 10.0 mi Calm Calm - N/A   Clear
11:18 PM 57.7 °F 55.9 °F 94% 30.06 in 10.0 mi Calm Calm - N/A   Scattered Clouds
11:36 PM 56.8 °F 55.2 °F 94% 30.05 in 10.0 mi ENE 4.6 mph - N/A   Mostly Cloudy
11:55 PM 58.1 °F 55.9 °F 93% 30.05 in 10.0 mi East 3.5 mph - N/A   Mostly Cloudy
11:56 PM 58.1 °F 55.9 °F 93% 30.05 in 10.0 mi East 3.5 mph - N/A   Mostly Cloudy